SVA1150 OERK-OEDF

Flight info

Callsign SVA1150
Flight time 0h 34m
Altitude 27000
Route EGPIN H744 ITUNI N687 MIBRA
Aircraft A320/M-SDE3FGHIRWY/LB1

Departure

Time 2026-05-07 13:51
Airport King Khalid International Airport (OERK)

Arrival

Time 2026-05-07 14:25
Airport King Fahd International Airport (OEDF)
Time Latitude Longitude Altitude Speed Heading
2026-05-07 13:20 24.94479 46.71204 2034 ft 0 kts 239°
2026-05-07 13:21 24.94477 46.71200 2035 ft 0 kts 239°
2026-05-07 13:34 24.94478 46.71202 2032 ft 2 kts 239°
2026-05-07 13:34 24.94487 46.71220 2042 ft 3 kts 242°
2026-05-07 13:35 24.94496 46.71239 2041 ft 3 kts 245°
2026-05-07 13:35 24.94504 46.71260 2040 ft 3 kts 252°
2026-05-07 13:35 24.94509 46.71281 2037 ft 3 kts 270°
2026-05-07 13:35 24.94506 46.71299 2034 ft 2 kts 315°
2026-05-07 13:36 24.94502 46.71304 2036 ft 0 kts 329°
2026-05-07 13:39 24.94505 46.71302 2036 ft 3 kts 329°
2026-05-07 13:39 24.94549 46.71273 2038 ft 11 kts 332°
2026-05-07 13:39 24.94625 46.71317 2036 ft 12 kts 59°
2026-05-07 13:40 24.94672 46.71407 2040 ft 15 kts 60°
2026-05-07 13:40 24.94720 46.71499 2038 ft 14 kts 60°
2026-05-07 13:40 24.94770 46.71594 2041 ft 11 kts 60°
2026-05-07 13:40 24.94812 46.71675 2039 ft 13 kts 60°
2026-05-07 13:41 24.94884 46.71740 2032 ft 15 kts 353°
2026-05-07 13:41 24.94973 46.71691 2032 ft 14 kts 329°
2026-05-07 13:41 24.94987 46.71682 2032 ft 0 kts 329°
2026-05-07 13:42 24.95002 46.71673 2034 ft 6 kts 329°
2026-05-07 13:42 24.95059 46.71635 2036 ft 13 kts 329°
2026-05-07 13:42 24.95155 46.71573 2034 ft 19 kts 329°
2026-05-07 13:43 24.95275 46.71497 2037 ft 16 kts 330°
2026-05-07 13:43 24.95370 46.71439 2035 ft 15 kts 331°
2026-05-07 13:43 24.95452 46.71382 2031 ft 13 kts 310°
2026-05-07 13:43 24.95463 46.71348 2031 ft 0 kts 276°
2026-05-07 13:44 24.95465 46.71320 2036 ft 11 kts 268°
2026-05-07 13:44 24.95532 46.71223 2033 ft 16 kts 332°
2026-05-07 13:44 24.95640 46.71151 2035 ft 18 kts 330°
2026-05-07 13:44 24.95735 46.71092 2031 ft 11 kts 330°
2026-05-07 13:45 24.95798 46.71053 2037 ft 10 kts 330°
2026-05-07 13:45 24.95855 46.71018 2031 ft 9 kts 330°
2026-05-07 13:45 24.95945 46.70959 2030 ft 19 kts 329°
2026-05-07 13:45 24.96066 46.70879 2035 ft 22 kts 330°
2026-05-07 13:46 24.96162 46.70821 2030 ft 15 kts 332°
2026-05-07 13:46 24.96248 46.70769 2030 ft 14 kts 332°
2026-05-07 13:46 24.96330 46.70719 2030 ft 14 kts 327°
2026-05-07 13:46 24.96436 46.70648 2032 ft 22 kts 330°
2026-05-07 13:47 24.96550 46.70576 2036 ft 19 kts 330°
2026-05-07 13:47 24.96687 46.70490 2031 ft 26 kts 330°
2026-05-07 13:47 24.96822 46.70405 2032 ft 20 kts 330°
2026-05-07 13:47 24.96957 46.70321 2031 ft 19 kts 330°
2026-05-07 13:48 24.97095 46.70232 2035 ft 27 kts 330°
2026-05-07 13:48 24.97241 46.70140 2034 ft 27 kts 330°
2026-05-07 13:48 24.97372 46.70062 2032 ft 17 kts 342°
2026-05-07 13:48 24.97452 46.70134 2031 ft 14 kts 60°
2026-05-07 13:49 24.97458 46.70146 2028 ft 0 kts 60°
2026-05-07 13:49 24.97462 46.70154 2028 ft 6 kts 60°
2026-05-07 13:49 24.97494 46.70219 2032 ft 13 kts 60°
2026-05-07 13:50 24.97490 46.70325 2028 ft 15 kts 145°
2026-05-07 13:50 24.97429 46.70362 2031 ft 29 kts 151°
2026-05-07 13:50 24.97012 46.70629 2032 ft 106 kts 150°
2026-05-07 13:50 24.96191 46.71144 2035 ft 163 kts 151°
2026-05-07 13:51 24.95182 46.71757 2711 ft 163 kts 147°
2026-05-07 13:51 24.94202 46.72396 3451 ft 163 kts 139°
2026-05-07 13:51 24.93322 46.73205 4007 ft 170 kts 139°
2026-05-07 13:51 24.92363 46.74093 4207 ft 191 kts 139°
2026-05-07 13:52 24.91294 46.75083 4397 ft 216 kts 139°
2026-05-07 13:52 24.90094 46.76196 4791 ft 233 kts 140°
2026-05-07 13:52 24.88977 46.77559 5275 ft 250 kts 119°
2026-05-07 13:52 24.88523 46.79462 5761 ft 269 kts 91°
2026-05-07 13:53 24.89012 46.81495 6248 ft 284 kts 66°
2026-05-07 13:53 24.89884 46.83465 6706 ft 288 kts 65°
2026-05-07 13:53 24.90781 46.85451 7172 ft 291 kts 65°
2026-05-07 13:53 24.91688 46.87455 7644 ft 295 kts 66°
2026-05-07 13:54 24.92605 46.89493 8133 ft 299 kts 66°
2026-05-07 13:54 24.93527 46.91557 8624 ft 303 kts 66°
2026-05-07 13:54 24.94461 46.93651 9099 ft 307 kts 66°
2026-05-07 13:54 24.95405 46.95772 9603 ft 309 kts 66°
2026-05-07 13:55 24.96352 46.97909 10071 ft 313 kts 66°
2026-05-07 13:55 24.97329 47.00123 10538 ft 329 kts 66°
2026-05-07 13:55 24.98356 47.02450 11012 ft 344 kts 66°
2026-05-07 13:55 24.99425 47.04870 11486 ft 358 kts 66°
2026-05-07 13:56 25.00538 47.07384 11977 ft 371 kts 65°
2026-05-07 13:56 25.01759 47.09929 12463 ft 380 kts 59°
2026-05-07 13:56 25.03157 47.12433 12968 ft 386 kts 59°
2026-05-07 13:56 25.04567 47.14963 13472 ft 388 kts 59°
2026-05-07 13:57 25.05985 47.17512 13953 ft 391 kts 59°
2026-05-07 13:57 25.07392 47.20048 14410 ft 393 kts 59°
2026-05-07 13:57 25.08841 47.22662 14869 ft 396 kts 59°
2026-05-07 13:57 25.10267 47.25231 15346 ft 399 kts 58°
2026-05-07 13:58 25.11721 47.27847 15828 ft 401 kts 58°
2026-05-07 13:58 25.13183 47.30482 16311 ft 404 kts 58°
2026-05-07 13:58 25.14655 47.33133 16806 ft 407 kts 58°
2026-05-07 13:58 25.16139 47.35808 17314 ft 410 kts 58°
2026-05-07 13:59 25.17630 47.38502 17830 ft 413 kts 58°
2026-05-07 13:59 25.19128 47.41218 18323 ft 416 kts 58°
2026-05-07 13:59 25.20744 47.43874 18776 ft 418 kts 50°
2026-05-07 13:59 25.22618 47.46348 19233 ft 421 kts 49°
2026-05-07 14:00 25.24513 47.48825 19696 ft 425 kts 49°
2026-05-07 14:00 25.25783 47.50484 20009 ft 427 kts 49°
2026-05-07 14:00 25.27708 47.53003 20488 ft 431 kts 49°
2026-05-07 14:00 25.30290 47.56387 21131 ft 438 kts 50°
2026-05-07 14:01 25.32259 47.58971 21629 ft 442 kts 50°
2026-05-07 14:01 25.34249 47.61584 22134 ft 446 kts 50°
2026-05-07 14:01 25.36252 47.64215 22640 ft 449 kts 50°
2026-05-07 14:01 25.38272 47.66870 23173 ft 452 kts 50°
2026-05-07 14:02 25.39619 47.68697 23511 ft 454 kts 54°
2026-05-07 14:02 25.41297 47.71601 23943 ft 455 kts 63°
2026-05-07 14:02 25.42636 47.74773 24392 ft 456 kts 67°
2026-05-07 14:02 25.43942 47.78010 24853 ft 458 kts 67°
2026-05-07 14:03 25.45246 47.81228 25290 ft 459 kts 67°
2026-05-07 14:03 25.46561 47.84461 25771 ft 461 kts 67°
2026-05-07 14:03 25.47876 47.87695 26244 ft 462 kts 67°
2026-05-07 14:03 25.49197 47.90943 26705 ft 464 kts 67°
2026-05-07 14:04 25.50534 47.94234 26866 ft 473 kts 67°
2026-05-07 14:04 25.51901 47.97600 26908 ft 485 kts 67°
2026-05-07 14:04 25.53299 48.01038 26902 ft 491 kts 67°
2026-05-07 14:04 25.54686 48.04449 26904 ft 494 kts 67°
2026-05-07 14:05 25.56096 48.07922 26898 ft 494 kts 67°
2026-05-07 14:05 25.57506 48.11397 26899 ft 495 kts 67°
2026-05-07 14:05 25.58918 48.14879 26898 ft 495 kts 67°
2026-05-07 14:05 25.60323 48.18354 26899 ft 495 kts 67°
2026-05-07 14:06 25.61729 48.21837 26900 ft 495 kts 67°
2026-05-07 14:06 25.63135 48.25322 26899 ft 495 kts 66°
2026-05-07 14:06 25.64544 48.28817 26898 ft 495 kts 67°
2026-05-07 14:06 25.65948 48.32303 26895 ft 495 kts 67°
2026-05-07 14:07 25.67334 48.35745 26897 ft 495 kts 67°
2026-05-07 14:07 25.68830 48.39191 26894 ft 496 kts 61°
2026-05-07 14:07 25.70646 48.42436 26894 ft 496 kts 57°
2026-05-07 14:07 25.72499 48.45660 26889 ft 495 kts 57°
2026-05-07 14:08 25.74344 48.48878 26890 ft 494 kts 57°
2026-05-07 14:08 25.76184 48.52097 26890 ft 493 kts 57°
2026-05-07 14:08 25.78021 48.55313 26891 ft 494 kts 57°
2026-05-07 14:08 25.79861 48.58536 26884 ft 494 kts 57°
2026-05-07 14:09 25.81700 48.61758 26885 ft 493 kts 57°
2026-05-07 14:09 25.83538 48.64981 26886 ft 493 kts 57°
2026-05-07 14:09 25.85375 48.68197 26878 ft 492 kts 57°
2026-05-07 14:09 25.87211 48.71403 26877 ft 492 kts 57°
2026-05-07 14:10 25.89043 48.74608 26872 ft 492 kts 57°
2026-05-07 14:10 25.90880 48.77811 26871 ft 492 kts 57°
2026-05-07 14:10 25.92715 48.81025 26870 ft 492 kts 57°
2026-05-07 14:10 25.94542 48.84241 26866 ft 492 kts 58°
2026-05-07 14:11 25.96375 48.87450 26777 ft 492 kts 57°
2026-05-07 14:11 25.98243 48.90646 25688 ft 496 kts 56°
2026-05-07 14:11 26.00167 48.93872 24410 ft 503 kts 56°
2026-05-07 14:11 26.02089 48.97061 23492 ft 500 kts 56°
2026-05-07 14:12 26.04013 49.00249 22587 ft 493 kts 56°
2026-05-07 14:12 26.05902 49.03392 21775 ft 485 kts 56°
2026-05-07 14:12 26.07756 49.06494 21014 ft 478 kts 56°
2026-05-07 14:12 26.09572 49.09556 20273 ft 471 kts 56°
2026-05-07 14:13 26.11364 49.12593 19570 ft 465 kts 56°
2026-05-07 14:13 26.13123 49.15578 18897 ft 459 kts 56°
2026-05-07 14:13 26.14868 49.18532 18243 ft 453 kts 56°
2026-05-07 14:13 26.16592 49.21445 17512 ft 447 kts 56°
2026-05-07 14:14 26.18294 49.24317 16795 ft 442 kts 56°
2026-05-07 14:14 26.19977 49.27162 16096 ft 438 kts 57°
2026-05-07 14:14 26.21641 49.29983 15429 ft 434 kts 57°
2026-05-07 14:14 26.23287 49.32780 14776 ft 430 kts 57°
2026-05-07 14:15 26.24892 49.35513 14168 ft 426 kts 57°
2026-05-07 14:15 26.26508 49.38258 13545 ft 421 kts 57°
2026-05-07 14:15 26.28108 49.40971 13118 ft 411 kts 57°
2026-05-07 14:15 26.29642 49.43569 12997 ft 392 kts 57°
2026-05-07 14:16 26.31108 49.46056 12860 ft 376 kts 57°
2026-05-07 14:16 26.32514 49.48445 12720 ft 361 kts 58°
2026-05-07 14:16 26.33881 49.50765 12345 ft 355 kts 58°
2026-05-07 14:16 26.35159 49.53078 11855 ft 344 kts 67°
2026-05-07 14:17 26.35706 49.55578 11357 ft 326 kts 91°
2026-05-07 14:17 26.35357 49.57996 10864 ft 309 kts 113°
2026-05-07 14:17 26.34290 49.59997 10374 ft 297 kts 129°
2026-05-07 14:17 26.33025 49.61806 9893 ft 294 kts 130°
2026-05-07 14:18 26.31776 49.63603 9384 ft 292 kts 129°
2026-05-07 14:18 26.30534 49.65393 8867 ft 291 kts 128°
2026-05-07 14:18 26.29304 49.67168 8351 ft 289 kts 128°
2026-05-07 14:18 26.28095 49.68919 7850 ft 280 kts 128°
2026-05-07 14:19 26.26926 49.70608 7352 ft 271 kts 128°
2026-05-07 14:19 26.25800 49.72257 6867 ft 263 kts 123°
2026-05-07 14:19 26.25082 49.74082 6381 ft 255 kts 101°
2026-05-07 14:19 26.25032 49.76018 5884 ft 248 kts 79°
2026-05-07 14:20 26.25474 49.77891 5386 ft 253 kts 73°
2026-05-07 14:20 26.25953 49.79781 4999 ft 253 kts 73°
2026-05-07 14:20 26.26425 49.81661 4623 ft 250 kts 73°
2026-05-07 14:20 26.27038 49.83436 4126 ft 242 kts 52°
2026-05-07 14:21 26.28355 49.84488 3610 ft 234 kts 14°
2026-05-07 14:21 26.29944 49.84354 3087 ft 233 kts 335°
2026-05-07 14:21 26.31342 49.83530 2750 ft 220 kts 341°
2026-05-07 14:21 26.32767 49.83062 2484 ft 208 kts 348°
2026-05-07 14:22 26.34133 49.82668 2254 ft 197 kts 347°
2026-05-07 14:22 26.35395 49.82288 1999 ft 177 kts 347°
2026-05-07 14:22 26.36511 49.81945 1782 ft 157 kts 348°
2026-05-07 14:22 26.37536 49.81630 1597 ft 149 kts 349°
2026-05-07 14:23 26.38532 49.81324 1398 ft 148 kts 348°
2026-05-07 14:23 26.39510 49.81023 1227 ft 145 kts 348°
2026-05-07 14:23 26.40457 49.80731 1052 ft 139 kts 347°
2026-05-07 14:23 26.41368 49.80450 885 ft 134 kts 349°
2026-05-07 14:24 26.42269 49.80173 732 ft 135 kts 350°
2026-05-07 14:24 26.43161 49.79897 565 ft 131 kts 349°
2026-05-07 14:24 26.44033 49.79628 393 ft 129 kts 349°
2026-05-07 14:24 26.44888 49.79369 230 ft 126 kts 347°
2026-05-07 14:25 26.45729 49.79104 99 ft 121 kts 347°
2026-05-07 14:25 26.46425 49.78892 91 ft 80 kts 345°
2026-05-07 14:25 26.46794 49.78779 87 ft 36 kts 345°
2026-05-07 14:25 26.47005 49.78718 88 ft 25 kts 353°
2026-05-07 14:26 26.47168 49.78730 87 ft 23 kts 11°
2026-05-07 14:26 26.47318 49.78770 86 ft 22 kts 14°
2026-05-07 14:26 26.47443 49.78821 86 ft 12 kts 45°
2026-05-07 14:26 26.47456 49.78854 87 ft 0 kts 70°
2026-05-07 14:27 26.47457 49.78856 87 ft 3 kts 70°
2026-05-07 14:27 26.47483 49.78953 85 ft 19 kts 73°
2026-05-07 14:27 26.47505 49.79075 87 ft 13 kts 105°
2026-05-07 14:28 26.47427 49.79132 87 ft 13 kts 162°
2026-05-07 14:28 26.47338 49.79159 88 ft 14 kts 159°
2026-05-07 14:28 26.47254 49.79203 86 ft 13 kts 155°
2026-05-07 14:28 26.47175 49.79244 85 ft 12 kts 155°
2026-05-07 14:29 26.47101 49.79283 87 ft 11 kts 155°
2026-05-07 14:29 26.47070 49.79345 85 ft 11 kts 77°
2026-05-07 14:29 26.47088 49.79387 85 ft 0 kts 64°